Time,TemperatureF,DewpointF,PressureIn,WindDirection,WindDirectionDegrees,WindSpeedMPH,WindSpeedGustMPH,Humidity,HourlyPrecipIn,Conditions,Clouds,dailyrainin,SoftwareType,DateUTC
2013-06-01 00:05:00,68.8,7.6,29.77,NNW,342,3.0,4.0,9,0.00,,,0.00,Wunderground v.1.15,2013-06-01 06:05:00,
2013-06-01 00:10:00,68.5,9.7,29.78,NNW,344,2.0,4.0,10,0.00,,,0.00,Wunderground v.1.15,2013-06-01 06:10:00,
2013-06-01 00:15:00,68.4,7.3,29.78,NNW,338,3.0,4.0,9,0.00,,,0.00,Wunderground v.1.15,2013-06-01 06:15:00,
2013-06-01 00:20:00,68.5,7.4,29.78,NNW,340,3.0,3.0,9,0.00,,,0.00,Wunderground v.1.15,2013-06-01 06:20:00,
2013-06-01 00:25:00,68.6,7.4,29.79,NNW,348,3.0,3.0,9,0.00,,,0.00,Wunderground v.1.15,2013-06-01 06:25:00,
2013-06-01 00:30:00,68.6,7.4,29.79,NNW,343,3.0,3.0,9,0.00,,,0.00,Wunderground v.1.15,2013-06-01 06:30:00,
2013-06-01 00:35:00,68.5,7.4,29.79,NNW,337,2.0,3.0,9,0.00,,,0.00,Wunderground v.1.15,2013-06-01 06:35:00,
2013-06-01 00:40:00,68.2,7.1,29.79,North,355,2.0,3.0,9,0.00,,,0.00,Wunderground v.1.15,2013-06-01 06:40:00,
2013-06-01 00:45:00,68.0,9.3,29.79,NNW,331,3.0,4.0,10,0.00,,,0.00,Wunderground v.1.15,2013-06-01 06:45:00,
2013-06-01 00:50:00,67.8,9.2,29.79,NNW,344,2.0,4.0,10,0.00,,,0.00,Wunderground v.1.15,2013-06-01 06:50:00,
2013-06-01 00:55:00,67.7,9.1,29.79,NNW,345,2.0,4.0,10,0.00,,,0.00,Wunderground v.1.15,2013-06-01 06:55:00,
2013-06-01 01:00:00,67.5,8.9,29.79,NNW,345,2.0,2.0,10,0.00,,,0.00,Wunderground v.1.15,2013-06-01 07:00:00,
2013-06-01 01:05:00,67.3,8.8,29.79,NNW,345,1.0,2.0,10,0.00,,,0.00,Wunderground v.1.15,2013-06-01 07:05:00,
2013-06-01 01:10:00,67.0,8.5,29.79,NNW,345,0.0,0.0,10,0.00,,,0.00,Wunderground v.1.15,2013-06-01 07:10:00,
2013-06-01 01:20:00,66.4,8.1,29.79,NNW,345,0.0,0.0,10,0.00,,,0.00,Wunderground v.1.15,2013-06-01 07:20:00,
2013-06-01 01:25:00,66.1,7.9,29.79,NNW,345,0.0,0.0,10,0.00,,,0.00,Wunderground v.1.15,2013-06-01 07:25:00,
2013-06-01 01:30:00,65.7,9.7,29.79,NNW,345,0.0,7.0,11,0.00,,,0.00,Wunderground v.1.15,2013-06-01 07:30:00,
2013-06-01 01:35:00,65.4,9.4,29.79,NNW,345,0.0,7.0,11,0.00,,,0.00,Wunderground v.1.15,2013-06-01 07:35:00,
2013-06-01 01:40:00,65.1,9.2,29.79,NNW,345,0.0,0.0,11,0.00,,,0.00,Wunderground v.1.15,2013-06-01 07:40:00,
2013-06-01 01:45:00,64.9,9.0,29.79,NNW,345,0.0,0.0,11,0.00,,,0.00,Wunderground v.1.15,2013-06-01 07:45:00,
2013-06-01 01:55:00,64.4,12.4,29.79,NNW,345,0.0,0.0,13,0.00,,,0.00,Wunderground v.1.15,2013-06-01 07:55:00,
2013-06-01 02:00:00,64.0,12.1,29.79,NNW,345,0.0,0.0,13,0.00,,,0.00,Wunderground v.1.15,2013-06-01 08:00:00,
2013-06-01 02:05:00,63.5,11.7,29.80,NNW,345,0.0,0.0,13,0.00,,,0.00,Wunderground v.1.15,2013-06-01 08:05:00,
2013-06-01 02:10:00,63.1,13.1,29.80,NNW,345,0.0,0.0,14,0.00,,,0.00,Wunderground v.1.15,2013-06-01 08:10:00,
2013-06-01 02:15:00,62.5,12.6,29.80,NNW,345,0.0,0.0,14,0.00,,,0.00,Wunderground v.1.15,2013-06-01 08:15:00,
2013-06-01 02:20:00,62.1,12.3,29.80,NNW,345,0.0,0.0,14,0.00,,,0.00,Wunderground v.1.15,2013-06-01 08:20:00,
2013-06-01 02:25:00,61.6,11.9,29.80,NNW,345,0.0,0.0,14,0.00,,,0.00,Wunderground v.1.15,2013-06-01 08:25:00,
2013-06-01 02:30:00,61.3,11.6,29.80,NNW,345,0.0,0.0,14,0.00,,,0.00,Wunderground v.1.15,2013-06-01 08:30:00,
2013-06-01 02:35:00,61.1,9.8,29.80,NNW,345,0.0,0.0,13,0.00,,,0.00,Wunderground v.1.15,2013-06-01 08:35:00,
2013-06-01 02:40:00,60.9,9.6,29.80,NNW,345,0.0,0.0,13,0.00,,,0.00,Wunderground v.1.15,2013-06-01 08:40:00,
2013-06-01 02:45:00,60.8,9.6,29.80,NNW,345,0.0,0.0,13,0.00,,,0.00,Wunderground v.1.15,2013-06-01 08:45:00,
2013-06-01 02:50:00,60.7,11.1,29.80,NNW,345,0.0,0.0,14,0.00,,,0.00,Wunderground v.1.15,2013-06-01 08:50:00,
2013-06-01 02:55:00,60.6,11.1,29.80,NNW,345,0.0,0.0,14,0.00,,,0.00,Wunderground v.1.15,2013-06-01 08:55:00,
2013-06-01 03:00:00,60.5,11.0,29.80,NNW,345,0.0,0.0,14,0.00,,,0.00,Wunderground v.1.15,2013-06-01 09:00:00,
2013-06-01 03:05:00,60.4,12.5,29.80,NNW,345,0.0,0.0,15,0.00,,,0.00,Wunderground v.1.15,2013-06-01 09:05:00,
2013-06-01 03:10:00,60.3,12.4,29.81,NNW,345,0.0,0.0,15,0.00,,,0.00,Wunderground v.1.15,2013-06-01 09:10:00,
2013-06-01 03:15:00,60.0,13.6,29.81,NNW,345,0.0,0.0,16,0.00,,,0.00,Wunderground v.1.15,2013-06-01 09:15:00,
2013-06-01 03:20:00,59.7,13.4,29.81,NNW,345,0.0,0.0,16,0.00,,,0.00,Wunderground v.1.15,2013-06-01 09:20:00,
2013-06-01 03:30:00,59.1,12.9,29.82,NNW,345,0.0,0.0,16,0.00,,,0.00,Wunderground v.1.15,2013-06-01 09:30:00,
2013-06-01 03:35:00,59.0,12.8,29.82,NNW,345,0.0,0.0,16,0.00,,,0.00,Wunderground v.1.15,2013-06-01 09:35:00,
2013-06-01 03:40:00,58.9,12.7,29.81,NNW,345,0.0,0.0,16,0.00,,,0.00,Wunderground v.1.15,2013-06-01 09:40:00,
2013-06-01 03:45:00,58.4,13.7,29.82,NNW,345,0.0,0.0,17,0.00,,,0.00,Wunderground v.1.15,2013-06-01 09:45:00,
2013-06-01 03:50:00,58.2,13.5,29.82,NNW,345,0.0,0.0,17,0.00,,,0.00,Wunderground v.1.15,2013-06-01 09:50:00,
2013-06-01 03:55:00,57.9,14.6,29.83,NNW,345,0.0,0.0,18,0.00,,,0.00,Wunderground v.1.15,2013-06-01 09:55:00,
2013-06-01 04:00:00,57.7,14.4,29.83,NNW,345,0.0,0.0,18,0.00,,,0.00,Wunderground v.1.15,2013-06-01 10:00:00,
2013-06-01 04:05:00,57.5,14.3,29.83,NNW,345,0.0,0.0,18,0.00,,,0.00,Wunderground v.1.15,2013-06-01 10:05:00,
2013-06-01 04:10:00,57.3,14.1,29.83,NNW,345,0.0,0.0,18,0.00,,,0.00,Wunderground v.1.15,2013-06-01 10:10:00,
2013-06-01 04:15:00,57.0,15.1,29.83,NNW,345,0.0,0.0,19,0.00,,,0.00,Wunderground v.1.15,2013-06-01 10:15:00,
2013-06-01 04:20:00,56.8,14.9,29.83,NNW,345,0.0,0.0,19,0.00,,,0.00,Wunderground v.1.15,2013-06-01 10:20:00,
2013-06-01 04:25:00,56.6,14.8,29.84,NNW,345,0.0,0.0,19,0.00,,,0.00,Wunderground v.1.15,2013-06-01 10:25:00,
2013-06-01 04:30:00,56.4,14.6,29.84,NNW,345,0.0,0.0,19,0.00,,,0.00,Wunderground v.1.15,2013-06-01 10:30:00,
2013-06-01 04:35:00,56.1,15.5,29.84,NNW,345,0.0,0.0,20,0.00,,,0.00,Wunderground v.1.15,2013-06-01 10:35:00,
2013-06-01 04:40:00,55.8,15.3,29.84,NNW,345,0.0,0.0,20,0.00,,,0.00,Wunderground v.1.15,2013-06-01 10:40:00,
2013-06-01 04:45:00,55.7,15.2,29.84,NNW,345,0.0,0.0,20,0.00,,,0.00,Wunderground v.1.15,2013-06-01 10:45:00,
2013-06-01 04:50:00,55.6,15.1,29.84,NNW,345,0.0,0.0,20,0.00,,,0.00,Wunderground v.1.15,2013-06-01 10:50:00,
2013-06-01 04:55:00,55.6,16.2,29.85,NNW,345,0.0,0.0,21,0.00,,,0.00,Wunderground v.1.15,2013-06-01 10:55:00,
2013-06-01 05:00:00,55.3,16.0,29.85,NNW,345,0.0,0.0,21,0.00,,,0.00,Wunderground v.1.15,2013-06-01 11:00:00,
2013-06-01 05:05:00,55.0,15.7,29.86,NNW,345,0.0,0.0,21,0.00,,,0.00,Wunderground v.1.15,2013-06-01 11:05:00,
2013-06-01 05:10:00,54.8,15.6,29.86,NNW,345,0.0,0.0,21,0.00,,,0.00,Wunderground v.1.15,2013-06-01 11:10:00,
2013-06-01 05:20:00,54.4,16.3,29.86,NNW,345,0.0,0.0,22,0.00,,,0.00,Wunderground v.1.15,2013-06-01 11:20:00,
2013-06-01 05:25:00,54.3,17.2,29.86,NNW,345,0.0,0.0,23,0.00,,,0.00,Wunderground v.1.15,2013-06-01 11:25:00,
2013-06-01 05:30:00,54.1,16.0,29.87,NNW,345,0.0,0.0,22,0.00,,,0.00,Wunderground v.1.15,2013-06-01 11:30:00,
2013-06-01 05:35:00,54.0,17.0,29.87,NNW,345,0.0,0.0,23,0.00,,,0.00,Wunderground v.1.15,2013-06-01 11:35:00,
2013-06-01 05:40:00,53.8,16.8,29.87,NNW,345,0.0,0.0,23,0.00,,,0.00,Wunderground v.1.15,2013-06-01 11:40:00,
2013-06-01 05:50:00,53.5,17.5,29.88,NNW,345,0.0,0.0,24,0.00,,,0.00,Wunderground v.1.15,2013-06-01 11:50:00,
2013-06-01 05:55:00,53.3,18.3,29.88,NNW,345,0.0,0.0,25,0.00,,,0.00,Wunderground v.1.15,2013-06-01 11:55:00,
2013-06-01 06:00:00,53.2,17.3,29.88,NNW,345,0.0,0.0,24,0.00,,,0.00,Wunderground v.1.15,2013-06-01 12:00:00,
2013-06-01 06:05:00,53.1,17.2,29.88,NNW,345,0.0,0.0,24,0.00,,,0.00,Wunderground v.1.15,2013-06-01 12:05:00,
2013-06-01 06:10:00,53.0,17.1,29.88,NNW,345,0.0,0.0,24,0.00,,,0.00,Wunderground v.1.15,2013-06-01 12:10:00,
2013-06-01 06:15:00,52.9,17.0,29.89,NNW,345,0.0,0.0,24,0.00,,,0.00,Wunderground v.1.15,2013-06-01 12:15:00,
2013-06-01 06:20:00,52.9,17.0,29.89,NNW,345,0.0,0.0,24,0.00,,,0.00,Wunderground v.1.15,2013-06-01 12:20:00,
2013-06-01 06:30:00,52.8,16.0,29.89,NNW,345,0.0,1.0,23,0.00,,,0.00,Wunderground v.1.15,2013-06-01 12:30:00,
2013-06-01 06:35:00,53.0,16.1,29.89,NNW,345,0.0,1.0,23,0.00,,,0.00,Wunderground v.1.15,2013-06-01 12:35:00,
2013-06-01 06:45:00,53.6,16.6,29.90,NNW,345,0.0,0.0,23,0.00,,,0.00,Wunderground v.1.15,2013-06-01 12:45:00,
2013-06-01 06:50:00,54.3,16.2,29.90,NNW,345,0.0,0.0,22,0.00,,,0.00,Wunderground v.1.15,2013-06-01 12:50:00,
2013-06-01 06:55:00,54.9,18.7,29.90,NNW,345,0.0,0.0,24,0.00,,,0.00,Wunderground v.1.15,2013-06-01 12:55:00,
2013-06-01 07:00:00,55.3,19.1,29.90,NNW,345,0.0,0.0,24,0.00,,,0.00,Wunderground v.1.15,2013-06-01 13:00:00,
2013-06-01 07:05:00,55.6,19.3,29.91,NNW,345,0.0,0.0,24,0.00,,,0.00,Wunderground v.1.15,2013-06-01 13:05:00,
2013-06-01 07:10:00,55.9,19.6,29.90,NNW,345,0.0,0.0,24,0.00,,,0.00,Wunderground v.1.15,2013-06-01 13:10:00,
2013-06-01 07:15:00,56.3,18.9,29.90,NNW,345,0.0,0.0,23,0.00,,,0.00,Wunderground v.1.15,2013-06-01 13:15:00,
2013-06-01 07:20:00,56.8,19.3,29.91,NNW,345,0.0,0.0,23,0.00,,,0.00,Wunderground v.1.15,2013-06-01 13:20:00,
2013-06-01 07:25:00,57.4,17.7,29.91,NNW,345,0.0,1.0,21,0.00,,,0.00,Wunderground v.1.15,2013-06-01 13:25:00,
2013-06-01 07:30:00,58.1,17.2,29.91,NNW,345,0.0,0.0,20,0.00,,,0.00,Wunderground v.1.15,2013-06-01 13:30:00,
2013-06-01 07:35:00,59.0,16.7,29.91,NNW,345,1.0,2.0,19,0.00,,,0.00,Wunderground v.1.15,2013-06-01 13:35:00,
2013-06-01 07:40:00,59.6,14.7,29.91,NNW,340,1.0,3.0,17,0.00,,,0.00,Wunderground v.1.15,2013-06-01 13:40:00,
2013-06-01 07:45:00,60.1,13.7,29.91,NNW,339,2.0,3.0,16,0.00,,,0.00,Wunderground v.1.15,2013-06-01 13:45:00,
2013-06-01 07:50:00,60.7,14.2,29.91,NNW,340,2.0,3.0,16,0.00,,,0.00,Wunderground v.1.15,2013-06-01 13:50:00,
2013-06-01 07:55:00,61.4,14.7,29.91,NNW,339,2.0,3.0,16,0.00,,,0.00,Wunderground v.1.15,2013-06-01 13:55:00,
2013-06-01 08:00:00,62.1,15.3,29.91,North,350,2.0,3.0,16,0.00,,,0.00,Wunderground v.1.15,2013-06-01 14:00:00,
2013-06-01 08:05:00,62.7,14.3,29.91,NNW,329,2.0,3.0,15,0.00,,,0.00,Wunderground v.1.15,2013-06-01 14:05:00,
2013-06-01 08:10:00,63.1,13.1,29.91,NNW,329,2.0,2.0,14,0.00,,,0.00,Wunderground v.1.15,2013-06-01 14:10:00,
2013-06-01 08:15:00,63.7,11.9,29.91,NNW,330,1.0,2.0,13,0.00,,,0.00,Wunderground v.1.15,2013-06-01 14:15:00,
2013-06-01 08:20:00,64.5,12.5,29.91,NNW,337,1.0,3.0,13,0.00,,,0.00,Wunderground v.1.15,2013-06-01 14:20:00,
2013-06-01 08:25:00,64.9,12.8,29.91,NW,320,2.0,3.0,13,0.00,,,0.00,Wunderground v.1.15,2013-06-01 14:25:00,
2013-06-01 08:30:00,65.2,11.2,29.91,NNW,346,2.0,6.0,12,0.00,,,0.00,Wunderground v.1.15,2013-06-01 14:30:00,
2013-06-01 08:35:00,65.2,11.2,29.92,NNW,344,3.0,6.0,12,0.00,,,0.00,Wunderground v.1.15,2013-06-01 14:35:00,
2013-06-01 08:45:00,65.7,11.6,29.92,NNW,338,2.0,3.0,12,0.00,,,0.00,Wunderground v.1.15,2013-06-01 14:45:00,
2013-06-01 08:55:00,66.4,12.2,29.92,NW,312,1.0,2.0,12,0.00,,,0.00,Wunderground v.1.15,2013-06-01 14:55:00,
2013-06-01 09:00:00,66.6,12.3,29.92,NW,321,1.0,1.0,12,0.00,,,0.00,Wunderground v.1.15,2013-06-01 15:00:00,
2013-06-01 09:05:00,66.8,10.5,29.92,NNE,24,1.0,2.0,11,0.00,,,0.00,Wunderground v.1.15,2013-06-01 15:05:00,
2013-06-01 09:10:00,66.9,12.6,29.92,NNW,331,1.0,1.0,12,0.00,,,0.00,Wunderground v.1.15,2013-06-01 15:10:00,
2013-06-01 09:15:00,67.4,13.0,29.92,NNW,336,2.0,2.0,12,0.00,,,0.00,Wunderground v.1.15,2013-06-01 15:15:00,
2013-06-01 09:20:00,67.7,13.2,29.92,NNW,348,2.0,2.0,12,0.00,,,0.00,Wunderground v.1.15,2013-06-01 15:20:00,
2013-06-01 09:25:00,68.3,13.7,29.92,NNW,348,1.0,2.0,12,0.00,,,0.00,Wunderground v.1.15,2013-06-01 15:25:00,
2013-06-01 09:30:00,68.6,11.9,29.92,NW,323,2.0,2.0,11,0.00,,,0.00,Wunderground v.1.15,2013-06-01 15:30:00,
2013-06-01 09:35:00,68.8,12.1,29.92,NNW,336,2.0,2.0,11,0.00,,,0.00,Wunderground v.1.15,2013-06-01 15:35:00,
2013-06-01 09:40:00,68.9,14.1,29.92,NNW,340,3.0,3.0,12,0.00,,,0.00,Wunderground v.1.15,2013-06-01 15:40:00,
2013-06-01 09:50:00,69.1,14.3,29.91,NNW,346,2.0,3.0,12,0.00,,,0.00,Wunderground v.1.15,2013-06-01 15:50:00,
2013-06-01 09:55:00,69.4,12.5,29.92,North,360,2.0,3.0,11,0.00,,,0.00,Wunderground v.1.15,2013-06-01 15:55:00,
2013-06-01 10:00:00,69.9,12.9,29.92,NW,322,2.0,2.0,11,0.00,,,0.00,Wunderground v.1.15,2013-06-01 16:00:00,
2013-06-01 10:05:00,70.2,13.2,29.91,NNW,338,2.0,2.0,11,0.00,,,0.00,Wunderground v.1.15,2013-06-01 16:05:00,
2013-06-01 10:10:00,70.5,13.4,29.91,NNW,340,3.0,4.0,11,0.00,,,0.00,Wunderground v.1.15,2013-06-01 16:10:00,
2013-06-01 10:15:00,70.5,13.4,29.91,NNW,348,3.0,4.0,11,0.00,,,0.00,Wunderground v.1.15,2013-06-01 16:15:00,
2013-06-01 10:20:00,70.8,13.6,29.91,North,350,3.0,3.0,11,0.00,,,0.00,Wunderground v.1.15,2013-06-01 16:20:00,
2013-06-01 10:25:00,71.3,14.0,29.91,North,355,3.0,3.0,11,0.00,,,0.00,Wunderground v.1.15,2013-06-01 16:25:00,
2013-06-01 10:30:00,71.7,14.3,29.91,NNW,337,3.0,6.0,11,0.00,,,0.00,Wunderground v.1.15,2013-06-01 16:30:00,
2013-06-01 10:35:00,72.1,12.5,29.91,NNW,338,4.0,6.0,10,0.00,,,0.00,Wunderground v.1.15,2013-06-01 16:35:00,
2013-06-01 10:40:00,72.4,12.7,29.90,North,355,3.0,3.0,10,0.00,,,0.00,Wunderground v.1.15,2013-06-01 16:40:00,
2013-06-01 10:45:00,73.1,13.2,29.90,NNW,334,2.0,3.0,10,0.00,,,0.00,Wunderground v.1.15,2013-06-01 16:45:00,
2013-06-01 10:50:00,73.5,13.5,29.90,NNW,344,2.0,2.0,10,0.00,,,0.00,Wunderground v.1.15,2013-06-01 16:50:00,
2013-06-01 10:55:00,74.0,13.9,29.90,North,360,2.0,2.0,10,0.00,,,0.00,Wunderground v.1.15,2013-06-01 16:55:00,
2013-06-01 11:00:00,74.6,12.0,29.90,NNW,333,2.0,4.0,9,0.00,,,0.00,Wunderground v.1.15,2013-06-01 17:00:00,
2013-06-01 11:05:00,74.8,12.1,29.90,NNW,344,3.0,4.0,9,0.00,,,0.00,Wunderground v.1.15,2013-06-01 17:05:00,
2013-06-01 11:10:00,74.9,12.2,29.90,NNW,337,3.0,3.0,9,0.00,,,0.00,Wunderground v.1.15,2013-06-01 17:10:00,
2013-06-01 11:15:00,75.4,12.6,29.90,NNW,345,2.0,3.0,9,0.00,,,0.00,Wunderground v.1.15,2013-06-01 17:15:00,
2013-06-01 11:20:00,75.9,13.0,29.90,North,355,2.0,7.0,9,0.00,,,0.00,Wunderground v.1.15,2013-06-01 17:20:00,
2013-06-01 11:25:00,76.1,13.1,29.90,North,9,2.0,7.0,9,0.00,,,0.00,Wunderground v.1.15,2013-06-01 17:25:00,
2013-06-01 11:30:00,76.5,10.7,29.90,North,350,2.0,6.0,8,0.00,,,0.00,Wunderground v.1.15,2013-06-01 17:30:00,
2013-06-01 11:35:00,76.6,10.8,29.90,NNW,346,3.0,6.0,8,0.00,,,0.00,Wunderground v.1.15,2013-06-01 17:35:00,
2013-06-01 11:40:00,76.8,11.0,29.90,North,355,2.0,2.0,8,0.00,,,0.00,Wunderground v.1.15,2013-06-01 17:40:00,
2013-06-01 11:45:00,77.0,11.1,29.90,North,355,2.0,4.0,8,0.00,,,0.00,Wunderground v.1.15,2013-06-01 17:45:00,
2013-06-01 11:55:00,77.1,11.2,29.90,NNW,342,2.0,4.0,8,0.00,,,0.00,Wunderground v.1.15,2013-06-01 17:55:00,
2013-06-01 12:00:00,77.3,11.3,29.90,NNW,341,3.0,3.0,8,0.00,,,0.00,Wunderground v.1.15,2013-06-01 18:00:00,
2013-06-01 12:05:00,77.7,11.6,29.90,NNW,333,3.0,3.0,8,0.00,,,0.00,Wunderground v.1.15,2013-06-01 18:05:00,
2013-06-01 12:10:00,77.9,11.8,29.90,NNW,334,2.0,2.0,8,0.00,,,0.00,Wunderground v.1.15,2013-06-01 18:10:00,
2013-06-01 12:15:00,78.0,11.9,29.90,North,350,2.0,2.0,8,0.00,,,0.00,Wunderground v.1.15,2013-06-01 18:15:00,
2013-06-01 12:20:00,78.3,9.1,29.90,North,355,2.0,2.0,7,0.00,,,0.00,Wunderground v.1.15,2013-06-01 18:20:00,
2013-06-01 12:25:00,78.4,9.2,29.89,NNW,336,2.0,3.0,7,0.00,,,0.00,Wunderground v.1.15,2013-06-01 18:25:00,
2013-06-01 12:30:00,78.7,12.4,29.89,North,355,2.0,7.0,8,0.00,,,0.00,Wunderground v.1.15,2013-06-01 18:30:00,
2013-06-01 12:35:00,79.0,12.6,29.89,NNW,341,2.0,7.0,8,0.00,,,0.00,Wunderground v.1.15,2013-06-01 18:35:00,
2013-06-01 12:40:00,78.8,9.5,29.89,North,350,2.0,2.0,7,0.00,,,0.00,Wunderground v.1.15,2013-06-01 18:40:00,
2013-06-01 12:45:00,79.0,12.6,29.89,NNW,345,2.0,2.0,8,0.00,,,0.00,Wunderground v.1.15,2013-06-01 18:45:00,
2013-06-01 12:50:00,79.2,9.8,29.88,NNW,345,1.0,2.0,7,0.00,,,0.00,Wunderground v.1.15,2013-06-01 18:50:00,
2013-06-01 12:55:00,79.4,9.9,29.89,North,5,1.0,2.0,7,0.00,,,0.00,Wunderground v.1.15,2013-06-01 18:55:00,
2013-06-01 13:00:00,79.6,10.0,29.89,NNW,342,2.0,2.0,7,0.00,,,0.00,Wunderground v.1.15,2013-06-01 19:00:00,
2013-06-01 13:05:00,79.7,10.1,29.89,NNW,342,1.0,2.0,7,0.00,,,0.00,Wunderground v.1.15,2013-06-01 19:05:00,
2013-06-01 13:15:00,80.5,10.7,29.89,North,5,1.0,2.0,7,0.00,,,0.00,Wunderground v.1.15,2013-06-01 19:15:00,
2013-06-01 13:20:00,80.6,10.8,29.89,NNW,338,1.0,1.0,7,0.00,,,0.00,Wunderground v.1.15,2013-06-01 19:20:00,
2013-06-01 13:25:00,80.3,10.6,29.89,NNW,337,1.0,1.0,7,0.00,,,0.00,Wunderground v.1.15,2013-06-01 19:25:00,
2013-06-01 13:30:00,80.5,10.7,29.88,NNW,337,0.0,7.0,7,0.00,,,0.00,Wunderground v.1.15,2013-06-01 19:30:00,
2013-06-01 13:35:00,80.7,10.9,29.88,NNW,329,1.0,7.0,7,0.00,,,0.00,Wunderground v.1.15,2013-06-01 19:35:00,
2013-06-01 13:45:00,80.7,7.4,29.88,NNW,346,1.0,2.0,6,0.00,,,0.00,Wunderground v.1.15,2013-06-01 19:45:00,
2013-06-01 13:50:00,80.9,11.0,29.88,North,5,1.0,6.0,7,0.00,,,0.00,Wunderground v.1.15,2013-06-01 19:50:00,
2013-06-01 13:55:00,81.2,11.2,29.88,NNW,342,2.0,6.0,7,0.00,,,0.00,Wunderground v.1.15,2013-06-01 19:55:00,
2013-06-01 14:00:00,81.5,8.0,29.86,NNW,347,1.0,1.0,6,0.00,,,0.00,Wunderground v.1.15,2013-06-01 20:00:00,
2013-06-01 14:05:00,81.6,8.1,29.87,NNW,332,2.0,2.0,6,0.00,,,0.00,Wunderground v.1.15,2013-06-01 20:05:00,
2013-06-01 14:10:00,81.8,8.2,29.86,North,355,3.0,3.0,6,0.00,,,0.00,Wunderground v.1.15,2013-06-01 20:10:00,
2013-06-01 14:15:00,81.9,8.3,29.87,NNW,338,2.0,3.0,6,0.00,,,0.00,Wunderground v.1.15,2013-06-01 20:15:00,
2013-06-01 14:20:00,82.1,8.4,29.87,NNW,339,2.0,2.0,6,0.00,,,0.00,Wunderground v.1.15,2013-06-01 20:20:00,
2013-06-01 14:25:00,82.1,8.4,29.86,NNW,340,1.0,2.0,6,0.00,,,0.00,Wunderground v.1.15,2013-06-01 20:25:00,
2013-06-01 14:30:00,82.5,8.7,29.86,NNW,340,1.0,1.0,6,0.00,,,0.00,Wunderground v.1.15,2013-06-01 20:30:00,
2013-06-01 14:35:00,83.0,9.1,29.86,NNW,333,1.0,2.0,6,0.00,,,0.00,Wunderground v.1.15,2013-06-01 20:35:00,
2013-06-01 14:40:00,83.2,9.2,29.86,NNW,339,1.0,1.0,6,0.00,,,0.00,Wunderground v.1.15,2013-06-01 20:40:00,
2013-06-01 14:45:00,83.3,9.3,29.86,NNW,346,1.0,1.0,6,0.00,,,0.00,Wunderground v.1.15,2013-06-01 20:45:00,
2013-06-01 14:50:00,83.4,5.3,29.86,NNW,327,1.0,1.0,5,0.00,,,0.00,Wunderground v.1.15,2013-06-01 20:50:00,
2013-06-01 14:55:00,83.3,5.3,29.86,SE,125,1.0,1.0,5,0.00,,,0.00,Wunderground v.1.15,2013-06-01 20:55:00,
2013-06-01 15:00:00,83.8,5.6,29.85,NNE,15,1.0,1.0,5,0.00,,,0.00,Wunderground v.1.15,2013-06-01 21:00:00,
2013-06-01 15:05:00,84.3,6.0,29.86,North,360,1.0,1.0,5,0.00,,,0.00,Wunderground v.1.15,2013-06-01 21:05:00,
2013-06-01 15:10:00,84.7,6.2,29.85,NNW,342,1.0,1.0,5,0.00,,,0.00,Wunderground v.1.15,2013-06-01 21:10:00,
2013-06-01 15:15:00,84.8,6.3,29.85,NNW,342,1.0,1.0,5,0.00,,,0.00,Wunderground v.1.15,2013-06-01 21:15:00,
2013-06-01 15:20:00,85.0,6.5,29.85,NNW,338,1.0,1.0,5,0.00,,,0.00,Wunderground v.1.15,2013-06-01 21:20:00,
2013-06-01 15:25:00,85.1,6.5,29.85,NNW,338,1.0,1.0,5,0.00,,,0.00,Wunderground v.1.15,2013-06-01 21:25:00,
2013-06-01 15:30:00,85.1,6.5,29.85,NNW,341,1.0,1.0,5,0.00,,,0.00,Wunderground v.1.15,2013-06-01 21:30:00,
2013-06-01 15:35:00,85.2,1.7,29.85,ENE,65,1.0,1.0,4,0.00,,,0.00,Wunderground v.1.15,2013-06-01 21:35:00,
2013-06-01 15:45:00,85.4,1.9,29.84,NNE,27,1.0,3.0,4,0.00,,,0.00,Wunderground v.1.15,2013-06-01 21:45:00,
2013-06-01 15:50:00,85.5,1.9,29.85,North,9,1.0,1.0,4,0.00,,,0.00,Wunderground v.1.15,2013-06-01 21:50:00,
2013-06-01 15:55:00,85.6,2.0,29.84,NNW,348,1.0,1.0,4,0.00,,,0.00,Wunderground v.1.15,2013-06-01 21:55:00,
2013-06-01 16:05:00,85.9,2.2,29.84,NNE,14,1.0,1.0,4,0.00,,,0.00,Wunderground v.1.15,2013-06-01 22:05:00,
2013-06-01 16:10:00,86.0,2.3,29.84,ESE,115,2.0,2.0,4,0.00,,,0.00,Wunderground v.1.15,2013-06-01 22:10:00,
2013-06-01 16:15:00,86.3,7.4,29.84,NNW,337,2.0,2.0,5,0.00,,,0.00,Wunderground v.1.15,2013-06-01 22:15:00,
2013-06-01 16:20:00,86.5,7.5,29.84,NNW,337,1.0,1.0,5,0.00,,,0.00,Wunderground v.1.15,2013-06-01 22:20:00,
2013-06-01 16:25:00,86.8,7.7,29.83,NNW,337,0.0,1.0,5,0.00,,,0.00,Wunderground v.1.15,2013-06-01 22:25:00,
2013-06-01 16:30:00,87.4,3.3,29.83,NNW,337,0.0,5.0,4,0.00,,,0.00,Wunderground v.1.15,2013-06-01 22:30:00,
2013-06-01 16:35:00,87.8,3.5,29.83,NNW,337,0.0,5.0,4,0.00,,,0.00,Wunderground v.1.15,2013-06-01 22:35:00,
2013-06-01 16:40:00,87.8,3.5,29.83,NNW,337,0.0,0.0,4,0.00,,,0.00,Wunderground v.1.15,2013-06-01 22:40:00,
2013-06-01 16:45:00,87.9,3.6,29.83,NNW,337,0.0,2.0,4,0.00,,,0.00,Wunderground v.1.15,2013-06-01 22:45:00,
2013-06-01 16:50:00,88.0,3.7,29.83,NNW,337,1.0,1.0,4,0.00,,,0.00,Wunderground v.1.15,2013-06-01 22:50:00,
2013-06-01 16:55:00,87.6,-2.8,29.82,NNW,338,1.0,1.0,3,0.00,,,0.00,Wunderground v.1.15,2013-06-01 22:55:00,
2013-06-01 17:00:00,87.7,3.5,29.82,NNW,338,1.0,2.0,4,0.00,,,0.00,Wunderground v.1.15,2013-06-01 23:00:00,
2013-06-01 17:05:00,88.1,3.7,29.82,NNW,338,0.0,2.0,4,0.00,,,0.00,Wunderground v.1.15,2013-06-01 23:05:00,
2013-06-01 17:10:00,88.3,3.9,29.82,NNW,338,0.0,0.0,4,0.00,,,0.00,Wunderground v.1.15,2013-06-01 23:10:00,
2013-06-01 17:15:00,88.6,4.1,29.81,NNW,338,0.0,0.0,4,0.00,,,0.00,Wunderground v.1.15,2013-06-01 23:15:00,
2013-06-01 17:20:00,89.0,4.4,29.81,NNW,338,0.0,0.0,4,0.00,,,0.00,Wunderground v.1.15,2013-06-01 23:20:00,
2013-06-01 17:25:00,89.7,-1.4,29.81,NNW,338,0.0,1.0,3,0.00,,,0.00,Wunderground v.1.15,2013-06-01 23:25:00,
2013-06-01 17:30:00,89.9,-1.2,29.81,East,93,1.0,1.0,3,0.00,,,0.00,Wunderground v.1.15,2013-06-01 23:30:00,
2013-06-01 17:35:00,89.9,-1.2,29.81,East,93,1.0,1.0,3,0.00,,,0.00,Wunderground v.1.15,2013-06-01 23:35:00,
2013-06-01 17:45:00,89.5,4.7,29.81,East,90,0.0,0.0,4,0.00,,,0.00,Wunderground v.1.15,2013-06-01 23:45:00,
2013-06-01 17:50:00,89.2,-1.7,29.81,East,90,0.0,0.0,3,0.00,,,0.00,Wunderground v.1.15,2013-06-01 23:50:00,
2013-06-01 17:55:00,88.9,4.3,29.80,East,90,0.0,0.0,4,0.00,,,0.00,Wunderground v.1.15,2013-06-01 23:55:00,
2013-06-01 18:05:00,88.8,4.2,29.80,East,96,1.0,1.0,4,0.00,,,0.00,Wunderground v.1.15,2013-06-02 00:05:00,
2013-06-01 18:10:00,88.6,-2.1,29.80,East,96,0.0,0.0,3,0.00,,,0.00,Wunderground v.1.15,2013-06-02 00:10:00,
2013-06-01 18:15:00,88.6,-2.1,29.80,East,96,0.0,1.0,3,0.00,,,0.00,Wunderground v.1.15,2013-06-02 00:15:00,
2013-06-01 18:20:00,88.4,3.9,29.79,ESE,112,1.0,1.0,4,0.00,,,0.00,Wunderground v.1.15,2013-06-02 00:20:00,
2013-06-01 18:25:00,88.0,-2.5,29.79,ESE,108,1.0,1.0,3,0.00,,,0.00,Wunderground v.1.15,2013-06-02 00:25:00,
2013-06-01 18:30:00,87.9,3.6,29.79,ESE,108,1.0,1.0,4,0.00,,,0.00,Wunderground v.1.15,2013-06-02 00:30:00,
2013-06-01 18:35:00,87.8,3.5,29.79,ESE,110,0.0,1.0,4,0.00,,,0.00,Wunderground v.1.15,2013-06-02 00:35:00,
2013-06-01 18:40:00,87.6,3.4,29.79,ESE,110,0.0,0.0,4,0.00,,,0.00,Wunderground v.1.15,2013-06-02 00:40:00,
2013-06-01 18:45:00,87.4,3.3,29.79,ESE,110,0.0,0.0,4,0.00,,,0.00,Wunderground v.1.15,2013-06-02 00:45:00,
2013-06-01 18:50:00,86.9,2.9,29.79,ESE,109,0.0,0.0,4,0.00,,,0.00,Wunderground v.1.15,2013-06-02 00:50:00,
2013-06-01 18:55:00,86.5,2.6,29.80,ESE,109,0.0,0.0,4,0.00,,,0.00,Wunderground v.1.15,2013-06-02 00:55:00,
2013-06-01 19:00:00,86.3,2.5,29.80,ESE,109,0.0,0.0,4,0.00,,,0.00,Wunderground v.1.15,2013-06-02 01:00:00,
2013-06-01 19:05:00,86.2,2.4,29.80,ESE,109,0.0,0.0,4,0.00,,,0.00,Wunderground v.1.15,2013-06-02 01:05:00,
2013-06-01 19:15:00,86.0,7.2,29.80,ESE,109,0.0,0.0,5,0.00,,,0.00,Wunderground v.1.15,2013-06-02 01:15:00,
2013-06-01 19:25:00,85.1,10.6,29.80,ESE,109,0.0,0.0,6,0.00,,,0.00,Wunderground v.1.15,2013-06-02 01:25:00,
2013-06-01 19:30:00,84.6,10.2,29.80,ESE,109,0.0,5.0,6,0.00,,,0.00,Wunderground v.1.15,2013-06-02 01:30:00,
2013-06-01 19:35:00,84.2,5.9,29.80,ESE,109,0.0,5.0,5,0.00,,,0.00,Wunderground v.1.15,2013-06-02 01:35:00,
2013-06-01 19:40:00,83.8,9.6,29.80,ESE,109,0.0,0.0,6,0.00,,,0.00,Wunderground v.1.15,2013-06-02 01:40:00,
2013-06-01 19:50:00,83.0,15.6,29.80,ESE,109,0.0,0.0,8,0.00,,,0.00,Wunderground v.1.15,2013-06-02 01:50:00,
2013-06-01 19:55:00,82.5,12.2,29.80,ESE,109,0.0,0.0,7,0.00,,,0.00,Wunderground v.1.15,2013-06-02 01:55:00,
2013-06-01 20:00:00,82.1,14.9,29.80,ESE,109,0.0,0.0,8,0.00,,,0.00,Wunderground v.1.15,2013-06-02 02:00:00,
2013-06-01 20:05:00,81.7,14.6,29.81,ESE,109,0.0,0.0,8,0.00,,,0.00,Wunderground v.1.15,2013-06-02 02:05:00,
2013-06-01 20:10:00,81.2,11.2,29.81,ESE,109,0.0,0.0,7,0.00,,,0.00,Wunderground v.1.15,2013-06-02 02:10:00,
2013-06-01 20:15:00,80.7,16.6,29.81,ESE,109,0.0,0.0,9,0.00,,,0.00,Wunderground v.1.15,2013-06-02 02:15:00,
2013-06-01 20:20:00,80.3,16.3,29.81,ESE,109,0.0,0.0,9,0.00,,,0.00,Wunderground v.1.15,2013-06-02 02:20:00,
2013-06-01 20:25:00,79.8,13.2,29.81,ESE,109,0.0,0.0,8,0.00,,,0.00,Wunderground v.1.15,2013-06-02 02:25:00,
2013-06-01 20:30:00,79.3,12.8,29.81,ESE,109,0.0,0.0,8,0.00,,,0.00,Wunderground v.1.15,2013-06-02 02:30:00,
2013-06-01 20:35:00,78.8,12.5,29.81,ESE,109,0.0,0.0,8,0.00,,,0.00,Wunderground v.1.15,2013-06-02 02:35:00,
2013-06-01 20:40:00,78.3,14.8,29.82,ESE,109,0.0,0.0,9,0.00,,,0.00,Wunderground v.1.15,2013-06-02 02:40:00,
2013-06-01 20:45:00,77.7,14.3,29.82,ESE,109,0.0,0.0,9,0.00,,,0.00,Wunderground v.1.15,2013-06-02 02:45:00,
2013-06-01 20:50:00,77.1,13.9,29.83,ESE,109,0.0,0.0,9,0.00,,,0.00,Wunderground v.1.15,2013-06-02 02:50:00,
2013-06-01 20:55:00,77.2,20.6,29.83,ESE,111,1.0,1.0,12,0.00,,,0.00,Wunderground v.1.15,2013-06-02 02:55:00,
2013-06-01 21:00:00,77.5,20.8,29.83,ESE,111,1.0,2.0,12,0.00,,,0.00,Wunderground v.1.15,2013-06-02 03:00:00,
2013-06-01 21:10:00,78.2,26.7,29.84,ESE,111,1.0,1.0,15,0.00,,,0.00,Wunderground v.1.15,2013-06-02 03:10:00,
2013-06-01 21:20:00,78.3,28.4,29.84,ESE,113,2.0,4.0,16,0.00,,,0.00,Wunderground v.1.15,2013-06-02 03:20:00,
2013-06-01 21:25:00,78.3,28.4,29.84,ENE,77,2.0,4.0,16,0.00,,,0.00,Wunderground v.1.15,2013-06-02 03:25:00,
2013-06-01 21:30:00,78.2,28.3,29.85,East,86,2.0,2.0,16,0.00,,,0.00,Wunderground v.1.15,2013-06-02 03:30:00,
2013-06-01 21:35:00,78.0,28.1,29.85,East,96,2.0,3.0,16,0.00,,,0.00,Wunderground v.1.15,2013-06-02 03:35:00,
2013-06-01 21:40:00,77.8,29.5,29.85,East,99,2.0,3.0,17,0.00,,,0.00,Wunderground v.1.15,2013-06-02 03:40:00,
2013-06-01 21:45:00,77.7,29.4,29.85,ESE,112,3.0,3.0,17,0.00,,,0.00,Wunderground v.1.15,2013-06-02 03:45:00,
2013-06-01 21:50:00,77.6,29.3,29.85,ESE,105,4.0,6.0,17,0.00,,,0.00,Wunderground v.1.15,2013-06-02 03:50:00,
2013-06-01 21:55:00,77.4,29.1,29.85,East,89,4.0,6.0,17,0.00,,,0.00,Wunderground v.1.15,2013-06-02 03:55:00,
2013-06-01 22:00:00,77.2,29.0,29.85,East,96,4.0,6.0,17,0.00,,,0.00,Wunderground v.1.15,2013-06-02 04:00:00,
2013-06-01 22:05:00,76.9,28.7,29.85,ESE,105,4.0,6.0,17,0.00,,,0.00,Wunderground v.1.15,2013-06-02 04:05:00,
2013-06-01 22:10:00,76.7,28.6,29.85,East,89,4.0,4.0,17,0.00,,,0.00,Wunderground v.1.15,2013-06-02 04:10:00,
2013-06-01 22:15:00,76.4,29.7,29.85,ESE,114,4.0,4.0,18,0.00,,,0.00,Wunderground v.1.15,2013-06-02 04:15:00,
2013-06-01 22:20:00,76.3,29.7,29.86,ESE,103,4.0,4.0,18,0.00,,,0.00,Wunderground v.1.15,2013-06-02 04:20:00,
2013-06-01 22:25:00,76.1,29.5,29.86,East,101,4.0,4.0,18,0.00,,,0.00,Wunderground v.1.15,2013-06-02 04:25:00,
2013-06-01 22:30:00,76.0,29.4,29.85,ESE,108,4.0,4.0,18,0.00,,,0.00,Wunderground v.1.15,2013-06-02 04:30:00,
2013-06-01 22:35:00,75.8,29.2,29.85,ESE,105,4.0,4.0,18,0.00,,,0.00,Wunderground v.1.15,2013-06-02 04:35:00,
2013-06-01 22:40:00,75.5,29.0,29.86,ESE,105,4.0,4.0,18,0.00,,,0.00,Wunderground v.1.15,2013-06-02 04:40:00,
2013-06-01 22:45:00,75.2,28.8,29.85,East,96,5.0,5.0,18,0.00,,,0.00,Wunderground v.1.15,2013-06-02 04:45:00,
2013-06-01 22:50:00,74.9,29.8,29.85,ESE,104,5.0,5.0,19,0.00,,,0.00,Wunderground v.1.15,2013-06-02 04:50:00,
2013-06-01 22:55:00,74.6,29.6,29.85,ENE,63,5.0,5.0,19,0.00,,,0.00,Wunderground v.1.15,2013-06-02 04:55:00,
2013-06-01 23:00:00,74.4,29.4,29.85,ESE,113,6.0,6.0,19,0.00,,,0.00,Wunderground v.1.15,2013-06-02 05:00:00,
2013-06-01 23:10:00,74.0,29.1,29.85,East,96,6.0,6.0,19,0.00,,,0.00,Wunderground v.1.15,2013-06-02 05:10:00,
2013-06-01 23:15:00,73.8,28.9,29.86,ENE,71,6.0,8.0,19,0.00,,,0.00,Wunderground v.1.15,2013-06-02 05:15:00,
2013-06-01 23:25:00,73.4,28.6,29.86,East,97,6.0,9.0,19,0.00,,,0.00,Wunderground v.1.15,2013-06-02 05:25:00,
2013-06-01 23:30:00,73.2,28.4,29.86,East,97,5.0,12.0,19,0.00,,,0.00,Wunderground v.1.15,2013-06-02 05:30:00,
2013-06-01 23:35:00,73.1,29.6,29.86,East,85,6.0,12.0,20,0.00,,,0.00,Wunderground v.1.15,2013-06-02 05:35:00,
2013-06-01 23:40:00,72.9,29.4,29.86,East,96,5.0,9.0,20,0.00,,,0.00,Wunderground v.1.15,2013-06-02 05:40:00,
2013-06-01 23:45:00,72.8,29.4,29.86,East,89,6.0,14.0,20,0.00,,,0.00,Wunderground v.1.15,2013-06-02 05:45:00,
2013-06-01 23:50:00,72.6,29.2,29.86,NE,56,7.0,11.0,20,0.00,,,0.00,Wunderground v.1.15,2013-06-02 05:50:00,